Location: Quedlinburg
(51.7921°N, 11.1414°E)
Time: 08:24:06
(UTC+02:00)

RS-44 - Pass Details

Date: 20 March 2026
Orbit: 1175 x 1510 km, 82.5° (Epoch: 17 April)

Event Time Altitude Azimuth Distance (km) Brightness Sun altitude
Rises 04:13:58 0° 344° (NNW) 4,444 ? -19.4°
Reaches altitude 10° 04:17:26 10° 330° (NNW) 3,516 ? -19.0°
Maximum altitude 04:23:30 23° 284° (WNW) 2,726 ? -18.1°
Enters shadow 04:25:05 22° 269° (W) 2,804 ? -17.9°
